Time,TemperatureF,DewpointF,PressureIn,WindDirection,WindDirectionDegrees,WindSpeedMPH,WindSpeedGustMPH,Humidity,HourlyPrecipIn,Conditions,Clouds,dailyrainin,SoftwareType,DateUTC
2013-03-09 00:05:00,44.1,41.6,30.16,ENE,67,0.0,-999.0,91,-99.99,,,0.00,Acu-Link.com,2013-03-09 08:05:00,
2013-03-09 00:20:00,43.7,41.2,30.16,ESE,112,0.0,-999.0,91,-99.99,,,0.00,Acu-Link.com,2013-03-09 08:20:00,
2013-03-09 00:35:00,43.5,41.1,30.16,ESE,112,0.0,-999.0,91,-99.99,,,0.00,Acu-Link.com,2013-03-09 08:35:00,
2013-03-09 00:51:00,43.3,41.1,30.17,East,90,0.0,-999.0,92,-99.99,,,0.00,Acu-Link.com,2013-03-09 08:51:00,
2013-03-09 01:06:00,43.2,41.0,30.17,ESE,112,0.0,-999.0,92,-99.99,,,0.00,Acu-Link.com,2013-03-09 09:06:00,
2013-03-09 01:21:00,43.0,40.8,30.19,North,0,1.7,-999.0,92,-99.99,,,0.00,Acu-Link.com,2013-03-09 09:21:00,
2013-03-09 01:36:00,42.8,40.6,30.20,West,270,0.0,-999.0,92,-99.99,,,0.00,Acu-Link.com,2013-03-09 09:36:00,
2013-03-09 01:51:00,42.4,40.2,30.18,ESE,112,0.0,-999.0,92,-99.99,,,0.00,Acu-Link.com,2013-03-09 09:51:00,
2013-03-09 02:06:00,42.1,40.2,30.20,ESE,112,0.0,-999.0,93,-99.99,,,0.00,Acu-Link.com,2013-03-09 10:06:00,
2013-03-09 02:22:00,41.4,39.5,30.19,ENE,67,0.0,-999.0,93,-99.99,,,0.00,Acu-Link.com,2013-03-09 10:22:00,
2013-03-09 02:37:00,40.6,38.7,30.19,East,90,0.0,-999.0,93,-99.99,,,0.00,Acu-Link.com,2013-03-09 10:37:00,
2013-03-09 02:52:00,39.7,37.8,30.21,East,90,0.0,-999.0,93,-99.99,,,0.00,Acu-Link.com,2013-03-09 10:52:00,
2013-03-09 03:08:00,38.8,37.0,30.20,ENE,67,0.0,-999.0,93,-99.99,,,0.00,Acu-Link.com,2013-03-09 11:08:00,
2013-03-09 03:23:00,38.3,36.7,30.22,ESE,112,0.0,-999.0,94,-99.99,,,0.00,Acu-Link.com,2013-03-09 11:23:00,
2013-03-09 03:38:00,38.1,36.5,30.24,NNE,22,0.0,-999.0,94,-99.99,,,0.00,Acu-Link.com,2013-03-09 11:38:00,
2013-03-09 03:54:00,37.9,36.6,30.22,ESE,112,2.2,-999.0,95,-99.99,,,0.00,Acu-Link.com,2013-03-09 11:54:00,
2013-03-09 04:09:00,38.8,38.3,30.21,ENE,67,2.2,-999.0,98,-99.99,,,0.00,Acu-Link.com,2013-03-09 12:09:00,
2013-03-09 04:24:00,39.9,39.4,30.21,ESE,112,0.0,-999.0,98,-99.99,,,0.00,Acu-Link.com,2013-03-09 12:24:00,
2013-03-09 04:39:00,40.6,40.1,30.23,NE,45,3.2,-999.0,98,-99.99,,,0.00,Acu-Link.com,2013-03-09 12:39:00,
2013-03-09 04:55:00,40.1,39.1,30.22,ESE,112,0.0,-999.0,96,-99.99,,,0.00,Acu-Link.com,2013-03-09 12:55:00,
2013-03-09 05:10:00,39.9,38.9,30.22,East,90,2.2,-999.0,96,-99.99,,,0.00,Acu-Link.com,2013-03-09 13:10:00,
2013-03-09 05:25:00,39.2,37.9,30.25,ESE,112,1.7,-999.0,95,-99.99,,,0.00,Acu-Link.com,2013-03-09 13:25:00,
2013-03-09 05:41:00,38.5,37.2,30.25,NE,45,2.2,-999.0,95,-99.99,,,0.00,Acu-Link.com,2013-03-09 13:41:00,
2013-03-09 05:56:00,37.6,36.3,30.25,East,90,0.0,-999.0,95,-99.99,,,0.00,Acu-Link.com,2013-03-09 13:56:00,
2013-03-09 06:11:00,38.5,37.5,30.26,NNW,337,2.2,-999.0,96,-99.99,,,0.00,Acu-Link.com,2013-03-09 14:11:00,
2013-03-09 06:26:00,37.6,36.6,30.27,West,270,2.7,-999.0,96,-99.99,,,0.00,Acu-Link.com,2013-03-09 14:26:00,
2013-03-09 06:42:00,37.0,35.7,30.26,ESE,112,1.7,-999.0,95,-99.99,,,0.00,Acu-Link.com,2013-03-09 14:42:00,
2013-03-09 06:57:00,37.2,36.7,30.29,North,0,1.7,-999.0,98,-99.99,,,0.00,Acu-Link.com,2013-03-09 14:57:00,
2013-03-09 07:12:00,36.7,35.7,30.30,SSW,202,0.0,-999.0,96,-99.99,,,0.00,Acu-Link.com,2013-03-09 15:12:00,
2013-03-09 07:27:00,36.9,36.4,30.30,East,90,2.2,-999.0,98,-99.99,,,0.00,Acu-Link.com,2013-03-09 15:27:00,
2013-03-09 07:43:00,38.1,37.6,30.31,East,90,1.7,-999.0,98,-99.99,,,0.00,Acu-Link.com,2013-03-09 15:43:00,
2013-03-09 07:58:00,41.5,41.0,30.33,ESE,112,0.0,-999.0,98,-99.99,,,0.00,Acu-Link.com,2013-03-09 15:58:00,
2013-03-09 08:13:00,44.6,42.1,30.32,ESE,112,1.7,-999.0,91,-99.99,,,0.00,Acu-Link.com,2013-03-09 16:13:00,
2013-03-09 08:28:00,43.9,40.6,30.34,NNW,337,1.7,-999.0,88,-99.99,,,0.00,Acu-Link.com,2013-03-09 16:28:00,
2013-03-09 08:43:00,44.4,41.7,30.35,East,90,1.1,-999.0,90,-99.99,,,0.00,Acu-Link.com,2013-03-09 16:43:00,
2013-03-09 08:58:00,46.9,42.3,30.34,East,90,2.7,-999.0,84,-99.99,,,0.00,Acu-Link.com,2013-03-09 16:58:00,
2013-03-09 09:14:00,46.6,42.3,30.36,WNW,292,3.2,-999.0,85,-99.99,,,0.00,Acu-Link.com,2013-03-09 17:14:00,
2013-03-09 09:29:00,49.3,43.7,30.34,SE,135,2.7,-999.0,81,-99.99,,,0.00,Acu-Link.com,2013-03-09 17:29:00,
2013-03-09 09:44:00,50.5,43.9,30.36,SSE,157,2.2,-999.0,78,-99.99,,,0.00,Acu-Link.com,2013-03-09 17:44:00,
2013-03-09 09:59:00,51.1,44.5,30.34,SSW,202,4.2,-999.0,78,-99.99,,,0.00,Acu-Link.com,2013-03-09 17:59:00,
2013-03-09 10:14:00,52.7,45.3,30.33,West,270,3.2,-999.0,76,-99.99,,,0.00,Acu-Link.com,2013-03-09 18:14:00,
2013-03-09 10:30:00,55.0,46.1,30.34,SSE,157,1.1,-999.0,72,-99.99,,,0.00,Acu-Link.com,2013-03-09 18:30:00,
2013-03-09 10:45:00,52.9,44.8,30.34,South,180,3.7,-999.0,74,-99.99,,,0.00,Acu-Link.com,2013-03-09 18:45:00,
2013-03-09 11:00:00,54.1,44.9,30.34,West,270,3.2,-999.0,71,-99.99,,,0.00,Acu-Link.com,2013-03-09 19:00:00,
2013-03-09 11:16:00,54.5,45.7,30.35,SSW,202,1.1,-999.0,72,-99.99,,,0.00,Acu-Link.com,2013-03-09 19:16:00,
2013-03-09 11:31:00,56.5,45.7,30.34,SW,225,5.8,-999.0,67,-99.99,,,0.00,Acu-Link.com,2013-03-09 19:31:00,
2013-03-09 11:46:00,55.6,45.2,30.34,SW,225,4.2,-999.0,68,-99.99,,,0.00,Acu-Link.com,2013-03-09 19:46:00,
2013-03-09 12:01:00,57.9,47.0,30.34,South,180,1.7,-999.0,67,-99.99,,,0.00,Acu-Link.com,2013-03-09 20:01:00,
2013-03-09 12:16:00,58.5,45.5,30.34,SW,225,5.3,-999.0,62,-99.99,,,0.00,Acu-Link.com,2013-03-09 20:16:00,
2013-03-09 12:32:00,60.4,46.0,30.34,West,270,3.7,-999.0,59,-99.99,,,0.00,Acu-Link.com,2013-03-09 20:32:00,
2013-03-09 12:47:00,60.8,46.8,30.32,WSW,247,2.2,-999.0,60,-99.99,,,0.00,Acu-Link.com,2013-03-09 20:47:00,
2013-03-09 13:02:00,61.2,46.3,30.32,West,270,5.8,-999.0,58,-99.99,,,0.00,Acu-Link.com,2013-03-09 21:02:00,
2013-03-09 13:18:00,62.6,46.7,30.33,WNW,292,5.8,-999.0,56,-99.99,,,0.00,Acu-Link.com,2013-03-09 21:18:00,
2013-03-09 13:33:00,63.5,46.6,30.33,NNW,337,4.7,-999.0,54,-99.99,,,0.00,Acu-Link.com,2013-03-09 21:33:00,
2013-03-09 13:48:00,63.5,46.6,30.34,NW,315,3.2,-999.0,54,-99.99,,,0.00,Acu-Link.com,2013-03-09 21:48:00,
2013-03-09 14:04:00,63.9,46.4,30.33,NNE,22,5.3,-999.0,53,-99.99,,,0.00,Acu-Link.com,2013-03-09 22:04:00,
2013-03-09 14:19:00,63.5,45.6,30.33,NNW,337,5.3,-999.0,52,-99.99,,,0.00,Acu-Link.com,2013-03-09 22:19:00,
2013-03-09 14:34:00,64.0,45.5,30.33,NE,45,3.7,-999.0,51,-99.99,,,0.00,Acu-Link.com,2013-03-09 22:34:00,
2013-03-09 14:49:00,64.0,45.0,30.32,NNW,337,4.2,-999.0,50,-99.99,,,0.00,Acu-Link.com,2013-03-09 22:49:00,
2013-03-09 15:05:00,65.1,45.5,30.31,NNW,337,3.7,-999.0,49,-99.99,,,0.00,Acu-Link.com,2013-03-09 23:05:00,
2013-03-09 15:20:00,64.2,44.1,30.32,NNW,337,4.7,-999.0,48,-99.99,,,0.00,Acu-Link.com,2013-03-09 23:20:00,
2013-03-09 15:35:00,62.8,45.4,30.33,NE,45,10.4,-999.0,53,-99.99,,,0.00,Acu-Link.com,2013-03-09 23:35:00,
2013-03-09 15:51:00,61.3,45.9,30.32,NNW,337,5.8,-999.0,57,-99.99,,,0.00,Acu-Link.com,2013-03-09 23:51:00,
2013-03-09 16:06:00,59.7,45.3,30.32,NNW,337,6.3,-999.0,59,-99.99,,,0.00,Acu-Link.com,2013-03-10 00:06:00,
2013-03-09 16:21:00,60.6,46.6,30.34,WNW,292,4.7,-999.0,60,-99.99,,,0.00,Acu-Link.com,2013-03-10 00:21:00,
2013-03-09 16:36:00,58.1,46.0,30.31,NNW,337,5.8,-999.0,64,-99.99,,,0.00,Acu-Link.com,2013-03-10 00:36:00,
2013-03-09 16:52:00,56.8,46.0,30.31,NNE,22,3.7,-999.0,67,-99.99,,,0.00,Acu-Link.com,2013-03-10 00:52:00,
2013-03-09 17:07:00,56.7,45.9,30.33,West,270,1.1,-999.0,67,-99.99,,,0.00,Acu-Link.com,2013-03-10 01:07:00,
2013-03-09 17:22:00,55.9,45.1,30.33,NE,45,2.2,-999.0,67,-99.99,,,0.00,Acu-Link.com,2013-03-10 01:22:00,
2013-03-09 17:37:00,53.1,43.9,30.34,North,0,4.7,-999.0,71,-99.99,,,0.00,Acu-Link.com,2013-03-10 01:37:00,
2013-03-09 17:53:00,51.3,43.3,30.36,SE,135,4.2,-999.0,74,-99.99,,,0.00,Acu-Link.com,2013-03-10 01:53:00,
2013-03-09 18:08:00,50.4,43.5,30.36,NNW,337,2.7,-999.0,77,-99.99,,,0.00,Acu-Link.com,2013-03-10 02:08:00,
2013-03-09 18:23:00,49.3,43.1,30.38,NNE,22,2.2,-999.0,79,-99.99,,,0.00,Acu-Link.com,2013-03-10 02:23:00,
2013-03-09 18:38:00,48.4,42.5,30.38,NNE,22,2.2,-999.0,80,-99.99,,,0.00,Acu-Link.com,2013-03-10 02:38:00,
2013-03-09 18:53:00,47.8,42.3,30.39,NNE,22,2.7,-999.0,81,-99.99,,,0.00,Acu-Link.com,2013-03-10 02:53:00,
2013-03-09 19:09:00,47.1,41.9,30.40,East,90,0.0,-999.0,82,-99.99,,,0.00,Acu-Link.com,2013-03-10 03:09:00,
2013-03-09 19:24:00,45.5,41.6,30.40,East,90,0.0,-999.0,86,-99.99,,,0.00,Acu-Link.com,2013-03-10 03:24:00,
2013-03-09 19:39:00,44.1,41.1,30.42,East,90,1.7,-999.0,89,-99.99,,,0.00,Acu-Link.com,2013-03-10 03:39:00,
2013-03-09 19:55:00,43.3,40.6,30.40,ESE,112,0.0,-999.0,90,-99.99,,,0.00,Acu-Link.com,2013-03-10 03:55:00,
2013-03-09 20:10:00,42.6,40.2,30.40,ESE,112,0.0,-999.0,91,-99.99,,,0.00,Acu-Link.com,2013-03-10 04:10:00,
2013-03-09 20:25:00,41.9,39.5,30.40,ESE,112,0.0,-999.0,91,-99.99,,,0.00,Acu-Link.com,2013-03-10 04:25:00,
2013-03-09 20:41:00,41.2,39.1,30.40,East,90,0.0,-999.0,92,-99.99,,,0.00,Acu-Link.com,2013-03-10 04:41:00,
2013-03-09 20:56:00,40.8,38.9,30.41,SSW,202,0.0,-999.0,93,-99.99,,,0.00,Acu-Link.com,2013-03-10 04:56:00,
2013-03-09 21:11:00,40.3,38.4,30.43,ESE,112,1.7,-999.0,93,-99.99,,,0.00,Acu-Link.com,2013-03-10 05:11:00,
2013-03-09 21:26:00,40.3,38.7,30.42,ESE,112,0.0,-999.0,94,-99.99,,,0.00,Acu-Link.com,2013-03-10 05:26:00,
2013-03-09 21:41:00,39.7,38.4,30.42,WNW,292,0.0,-999.0,95,-99.99,,,0.00,Acu-Link.com,2013-03-10 05:41:00,
2013-03-09 21:57:00,39.4,37.8,30.44,ESE,112,0.0,-999.0,94,-99.99,,,0.00,Acu-Link.com,2013-03-10 05:57:00,
2013-03-09 22:12:00,38.8,37.2,30.43,East,90,0.0,-999.0,94,-99.99,,,0.00,Acu-Link.com,2013-03-10 06:12:00,
2013-03-09 22:27:00,38.3,36.7,30.43,ESE,112,0.0,-999.0,94,-99.99,,,0.00,Acu-Link.com,2013-03-10 06:27:00,
2013-03-09 22:42:00,37.9,36.6,30.43,ESE,112,0.0,-999.0,95,-99.99,,,0.00,Acu-Link.com,2013-03-10 06:42:00,
2013-03-09 22:58:00,37.8,36.5,30.43,ESE,112,1.7,-999.0,95,-99.99,,,0.00,Acu-Link.com,2013-03-10 06:58:00,
2013-03-09 23:13:00,37.9,36.9,30.42,SE,135,0.0,-999.0,96,-99.99,,,0.00,Acu-Link.com,2013-03-10 07:13:00,
2013-03-09 23:28:00,37.2,36.2,30.43,ESE,112,0.0,-999.0,96,-99.99,,,0.00,Acu-Link.com,2013-03-10 07:28:00,
2013-03-09 23:43:00,37.0,36.0,30.42,ESE,112,0.0,-999.0,96,-99.99,,,0.00,Acu-Link.com,2013-03-10 07:43:00,
2013-03-09 23:59:00,36.5,35.5,30.41,East,90,0.0,-999.0,96,-99.99,,,0.00,Acu-Link.com,2013-03-10 07:59:00,